Overview Statistics Trail Chart Weather Telemetry Raw packets
 

This is the latest recevied weather packets stored in our database for station/object NR0A-4. If no packets are shown the sender has not sent any weather packets the latest 10 day(s).

<< 75 76 77 78 79 80 81 >>
Time Temp. Humidity Pressure Rain* Wind** Luminosity Snow
1788121804 32.78° C 60% 1007.9 hPa 0 mm - 745 W/m² -
1788121504 32.22° C 63% 1008 hPa 0 mm - 777 W/m² -
1788121204 32.22° C 61% 1008.1 hPa 0 mm - 341 W/m² -
1788120913 32.22° C 60% 1008.1 hPa 0 mm - 330 W/m² -
1788120605 32.22° C 58% 1008 hPa 0 mm - 362 W/m² -
1788120304 31.67° C 57% 1008.1 hPa 0 mm - 394 W/m² -
1788120004 32.22° C 56% 1008.1 hPa 0 mm - 213 W/m² -
1788119704 32.22° C 58% 1008 hPa 0 mm - 211 W/m² -
1788119405 32.22° C 58% 1008 hPa 0 mm - 877 W/m² -
1788119104 32.78° C 56% 1007.8 hPa 0 mm - 877 W/m² -
1788118804 32.78° C 55% 1007.8 hPa 0 mm - 877 W/m² -
1788118519 32.78° C 57% 1007.8 hPa 0 mm - 877 W/m² -
1788118205 33.33° C 56% 1007.8 hPa 0 mm - 877 W/m² -
1788117904 32.78° C 56% 1007.7 hPa 0 mm - 877 W/m² -
1788117604 32.78° C 57% 1007.8 hPa 0 mm - 851 W/m² -
1788117305 32.22° C 61% 1007.8 hPa 0 mm - 803 W/m² -
1788117004 32.22° C 61% 1008.1 hPa 0 mm - 587 W/m² -
1788116704 31.67° C 60% 1008.2 hPa 0 mm - 336 W/m² -
1788116404 31.67° C 60% 1008.1 hPa 0 mm - 1018 W/m² -
1788116104 31.67° C 61% 1007.9 hPa 0 mm - 622 W/m² -
1788115804 31.67° C 61% 1008.1 hPa 0 mm - 664 W/m² -
1788115504 31.67° C 61% 1008.1 hPa 0 mm - 480 W/m² -
1788115204 31.67° C 61% 1008.1 hPa 0 mm - 394 W/m² -
1788114905 31.67° C 61% 1008.2 hPa 0 mm - 487 W/m² -
1788114604 31.67° C 60% 1008.4 hPa 0 mm - 359 W/m² -

* Rain latest hour (hover to see other rain measurements)
** Current wind speed in m/s (hover to see current wind gust speed)